Regional Weather Roundup
Issued by NWS

Home | Current Version | Previous Version | Text Only | Print | Product List | Glossary Off
Versions: 1 2 3 4 5 6 7 8 9 10 11 12 13 14 15 16 17 18 19 20 21 22 23 24 25 26 27 28 29 30 31 32 33 34 35 36 37 38 39 40 41 42 43 44 45 46 47 48 49 50

149
ASUS45 KPSR 260110
RWRAZ

ARIZONA HOURLY REGIONAL WEATHER ROUNDUP
NATIONAL WEATHER SERVICE PHOENIX AZ
600 PM MST MON JUL 25 2016

NOTE: FAIR INDICATES FEW OR NO CLOUDS BELOW 12,000 FEET WITH NO
SIGNIFICANT WEATHER AND/OR OBSTRUCTIONS TO VISIBILITY.

AZZ001>003-036-260200-
NORTHWEST ARIZONA

CITY           SKY/WX    TMP DP  RH WIND       PRES   REMARKS
BULLHEAD CITY  MOSUNNY  109  52  15 S10       29.71S HX 107
KINGMAN        SUNNY    100  45  15 MISG      29.97F
$$

AZZ004>008-015-016-018-260200-
NORTH CENTRAL ARIZONA

CITY           SKY/WX    TMP DP  RH WIND       PRES   REMARKS
GRAND CANYON   CLOUDY    79  44  28 S8        30.27F
WILLIAMS       LGT RAIN  61  57  88 SE14      30.41F
PRESCOTT       TSTM      71  58  63 N12       30.25R
FLAGSTAFF      LGT RAIN  58  55  90 SW6       30.37F
PAYSON         CLOUDY    73  61  64 N6        30.17F
PAGE           MOSUNNY   98  42  14 N9        30.00F
$$

AZZ009>014-017-260200-
NORTHEAST ARIZONA

CITY           SKY/WX    TMP DP  RH WIND       PRES   REMARKS
WINSLOW        CLOUDY    85  50  29 SW17      30.12R
SAINT JOHNS    PTSUNNY   85  46  25 S8        30.16S
WINDOW ROCK    LGT RAIN  73  53  49 S10       30.31R
SHOW LOW       CLOUDY    77  46  33 W7        30.25R
$$

AZZ023-260200-
GREATER PHOENIX AREA

CITY           SKY/WX    TMP DP  RH WIND       PRES   REMARKS
PHOENIX        MOSUNNY  106  57  20 N6        29.76F HX 105
BUCKEYE        SUNNY    108  55  18 W7        29.78S HX 106
GLENDALE       MOSUNNY  108  57  19 N16       29.80R HX 107
LUKE AFB       SUNNY    103  59  23 NE22      29.77R HX 103
DEER VALLEY    MOSUNNY   99  59  26 N23G30    29.80S
SCOTTSDALE     MOSUNNY  103  57  21 NW9       29.81F HX 102
MESA-FALCON    MOSUNNY  N/A N/A N/A W12       29.77F
MESA-GATEWAY   PTSUNNY  104  57  21 NW12G17   29.80  HX 103
CHANDLER       MOSUNNY  106  55  18 NW12      29.78F HX 105
$$

AZZ027-028-260200-
SOUTHWEST MARICOPA COUNTY AND PINAL COUNTY

CITY           SKY/WX    TMP DP  RH WIND       PRES   REMARKS
CASA GRANDE    SUNNY    104  57  21 NW12      29.83S HX 103
GILA BEND      MOSUNNY  107  53  17 W9        29.75F HX 105
$$

AZZ503-504-507>509-260200-
SOUTHEAST ARIZONA

CITY           SKY/WX    TMP DP  RH WIND       PRES   REMARKS
TUCSON         PTSUNNY  101  57  23 N9G16     29.90F HX 100
DAVIS-MONTHAN  MOSUNNY  100  57  24 N10       29.89S
RYAN FIELD     SUNNY    100  57  23 NW8       29.89F
NOGALES        SUNNY     94  54  25 CALM      29.99F
SIERRA VISTA   SUNNY     91  52  26 E1        30.08F
DOUGLAS        SUNNY     89  56  32 W9        30.02F
SAFFORD        MOSUNNY  100  54  21 W6        29.89F
$$

AZZ020-021-025-026-031-260200-
SOUTHWEST ARIZONA

CITY           SKY/WX    TMP DP  RH WIND       PRES   REMARKS
YUMA           MOSUNNY  106  63  24 S18       29.72F HX 109
$$

CAZ031-033-041-043-047-048-061-260200-
SOUTHERN CALIFORNIA

CITY           SKY/WX    TMP DP  RH WIND       PRES   REMARKS
DOWNTOWN L.A.  SUNNY     82  63  52 VRB6      29.85F
L.A. AIRPORT   MOSUNNY   76  66  71 W18       29.87S
SAN DIEGO      MOSUNNY   74  65  73 VRB6      29.90S
BURBANK        SUNNY     89  53  29 S12       29.86R
ONTARIO        PTSUNNY   92  55  28 W12       29.85F
RIVERSIDE      PTSUNNY   93  51  23 W13       29.85S
PALM SPRINGS   MOSUNNY  107  53  16 NE3       29.74F HX 105
EL CENTRO NAS  MOSUNNY  107  62  23 CALM      29.71F HX 109
IMPERIAL       SUNNY    109  66  25 E8        29.68F HX 115
BLYTHE         SUNNY    111  55  16 W14       29.70F HX 110
NEEDLES        PTSUNNY  113  51  13 VRB5      29.73S HX 110
$$

NVZ020-UTZ003-260200-
SOUTHERN NEVADA-UTAH

CITY           SKY/WX    TMP DP  RH WIND       PRES   REMARKS
LAS VEGAS      MOSUNNY  109  33   7 S12       29.76F HX 102
SALT LAKE CITY MOSUNNY   99  32   9 N12       29.98F
$$

NMZ009-TXZ055-260200-
NEW MEXICO-WEST TEXAS

CITY           SKY/WX    TMP DP  RH WIND       PRES   REMARKS
ALBUQUERQUE    CLOUDY    86  51  29 NE9       30.17R
EL PASO        FAIR      98  45  16 E14       29.96S
$$


........................KEY........................
SKY/WX - SKY CONDITION/WEATHER
TMP    - TEMPERATURE IN FAHRENHEIT
DP     - DEW POINT IN FAHRENHEIT
RH     - RELATIVE HUMIDITY IN PERCENT
WIND   - DIRECTION AND SPEED IN MILES PER HOUR (MPH)
VRB    - VARIABLE WIND DIRECTION
PRES   - MEAN SEA LEVEL PRESSURE IN INCHES OF MERCURY
         F - FALLING PRESSURE   R - RISING PRESSURE
         S - STEADY PRESSURE
VSB    - VISIBILITY IN MILES
HX     - HEAT INDEX IN FAHRENHEIT
WCI    - WIND CHILL INDEX IN FAHRENHEIT
TC     - TEMPERATURE IN CELSIUS WHICH IS ALSO KNOWN AS
         TEMPERATURE IN CENTIGRADE
AFB    - AIR FORCE BASE
         LUKE AFB IS LUKE AIR FORCE BASE
         DAVIS-MONTHAN IS DAVIS-MONTHAN AIR FORCE BASE
NAS    - NAVAL AIR STATION
         EL CENTRO NAS IS EL CENTRO NAVAL AIR STATION
N/A    - NOT AVAILABLE





USA.gov is the U.S. government's official web portal to all federal, state and local government web resources and services.